Weather Service Report


406 
ASUS45 KSLC 180710
RWRUT 

UTAH REGIONAL WEATHER ROUNDUP
NATIONAL WEATHER SERVICE SALT LAKE CITY UT
100 AM MDT SAT APR 18 2015

UTZ001>011-023>025-180800-

NORTHERN UTAH
  
CITY           SKY/WX    TMP DP  RH WIND       PRES   REMARKS
BRIGHAM CITY   CLEAR     47  39  73 NW5       30.04S                  
HILL AFB       CLEAR     48  37  64 E16       30.04S                  
LOGAN          CLEAR     46  34  62 VRB5      30.04S                  
OGDEN          CLEAR     48  37  65 S6        30.03S                  
PROVO AIRPORT  PTCLDY    50  37  62 N6        30.04F                  
SALT LAKE CITY PTCLDY    49  37  63 SW8       30.03F                  
VERNAL         CLOUDY    44  33  65 S6        30.05R                  
WENDOVER       CLEAR     52  19  28 NW3       30.06R                  
HEBER CITY     CLOUDY    41  34  75 E6        30.08S                  
WEST JORDAN    CLEAR     48  37  66 NW5       30.05S                  

$$

UTZ012>022-026-027-180800-

SOUTHERN/CENTRAL UTAH
  
CITY           SKY/WX    TMP DP  RH WIND       PRES   REMARKS
BLANDING       CLOUDY    35  34  99 CALM      30.09S                  
BRYCE CANYON   CLEAR     36  26  67 NW7       30.11R WCI  30          
CEDAR CITY     CLEAR     34  27  75 W9        30.08R WCI  27          
DELTA          MOCLDY    44  28  54 W6        30.06R                  
HANKSVILLE     CLOUDY    43  43 100 CALM      30.05S                  
MILFORD        CLEAR     38  29  70 SW8       30.06S WCI  32          
MOAB/CYNLANDS  LGT RAIN  41  41 100 CALM      30.03S                  
PRICE          CLOUDY    41  33  73 CALM      30.04S                  
ST GEORGE      MOSUNNY   54  27  35 SE9       30.02S                  

$$

REGIONAL REPORTS     COLORADO/ARIZONA
  
CITY           SKY/WX    TMP DP  RH WIND       PRES   REMARKS
CRAIG, CO      CLOUDY    36  33  89 SW12      30.03F WCI  28          
GRAND JUNCTION MOCLDY    33  33 100 E5        30.06S FOG     WCI  29  
RIFLE          CLOUDY    35  32  88 E6        30.06S WCI  30          
MONTROSE       CLOUDY    32  32 100 NW5       30.08S FOG     WCI  27  
CORTEZ         LGT SNOW  32  32 100 CALM      30.02F FOG              
PAGE, AZ       MOCLDY    53  34  48 CALM      30.02S                  
GRAND CANYON   CLEAR     27  23  85 CALM      30.11F                  
KINGMAN        CLEAR     44  19  36 CALM      30.02S                  
FLAGSTAFF      CLEAR     31  24  75 CALM      30.12F                  

$$

REGIONAL REPORTS    NEVADA/IDAHO/WYOMING
  
CITY           SKY/WX    TMP DP  RH WIND       PRES   REMARKS
LAS VEGAS, NV  CLEAR     68  15  13 S9        29.90S                  
ELY            CLEAR     32   9  38 SE3       30.15R                  
ELKO           CLEAR     41  22  46 CALM      30.12S                  
POCATELLO, ID  CLEAR     50  23  34 SW9       30.05S                  
BURLEY         CLEAR     40  26  57 SW8       30.03S WCI  34          
EVANSTON, WY   PTCLDY    35  29  78 E3        30.12S                  
ROCK SPRINGS   CLOUDY    36  34  92 NE12      30.10R WCI  28          

$$

Return to Home page


Western Regional Climate Center, wrcc@dri.edu